Weather History for West Memphis, AR

Change the Weather History Date:

Friday, May 11, 2012

  Actual Average Record
Temperature  
Mean Temperature 64 °F -  
Max Temperature 77 °F 80 °F 88 °F (1967)
Min Temperature 54 °F 57 °F 44 °F (1969)
Growing Degree Days 14 (Base 50)    
Moisture  
Dew Point 51 °F    
Average Humidity 59    
Maximum Humidity 90    
Minimum Humidity 37    
Precipitation  
Precipitation 0.00 in - - ()
Sea Level Pressure  
Sea Level Pressure 30.05 in    
Wind  
Wind Speed 4 mph (East)    
Max Wind Speed 12 mph    
Max Gust Speed -    
Visibility 10 miles    
Events      
Averages and records for this station are not official NWS values.
T = Trace of Precipitation, MM = Missing Value Source: NWS Daily Summary

Daily Weather History Graph

Daily Weather History Graph

Search for Another Location

Airport:

Trip Planner

Search our weather history database for the weather conditions in past years. The results will help you decide how hot, cold, wet, or windy it might be!

Date:

Astronomy

May. 11, 2012 Rise Set
Actual Time 5:59 AM CDT 7:55 PM CDT
Civil Twilight 5:32 AM CDT 8:23 PM CDT
Nautical Twilight 4:58 AM CDT 8:57 PM CDT
Astronomical Twilight 4:22 AM CDT 9:33 PM CDT
Moon 12:36 AM CDT (5/11) 11:30 AM CDT (5/11)
Length of Visible Light 14h 51m
Length of Day
13h 55m
Waning Gibbous, 63% of the Moon is Illuminated
May 11
Waning Gibbous
May 12
Last Quarter
May 20
New
May 28
First Quarter
Jun 4
Full

Hourly Weather History & Observations

Time (CDT) Temp. Dew Point Humidity Pressure Visibility Wind Dir Wind Speed Gust Speed Precip Events Conditions
12:53 AM 59.0 °F 50.0 °F 72% 29.99 in 10.0 mi Calm Calm - N/A   Clear
1:53 AM 57.0 °F 51.1 °F 81% 29.98 in 10.0 mi Calm Calm - N/A   Clear
2:53 AM 55.0 °F 51.1 °F 86% 29.99 in 10.0 mi Calm Calm - N/A   Clear
3:53 AM 54.0 °F 51.1 °F 90% 29.99 in 10.0 mi Calm Calm - N/A   Clear
4:53 AM 54.0 °F 51.1 °F 90% 29.99 in 10.0 mi Calm Calm - N/A   Clear
5:53 AM 54.0 °F 50.0 °F 86% 30.03 in 10.0 mi Calm Calm - N/A   Clear
6:53 AM 57.9 °F 52.0 °F 81% 30.04 in 10.0 mi East 4.6 mph - N/A   Clear
7:53 AM 64.0 °F 51.1 °F 63% 30.04 in 10.0 mi ESE 8.1 mph - N/A   Clear
8:53 AM 68.0 °F 48.0 °F 49% 30.05 in 10.0 mi SE 10.4 mph - N/A   Clear
9:53 AM 71.1 °F 50.0 °F 47% 30.07 in 10.0 mi SE 11.5 mph - N/A   Clear
10:53 AM 73.9 °F 48.9 °F 41% 30.07 in 10.0 mi SE 11.5 mph - N/A   Clear
11:53 AM 73.9 °F 48.0 °F 40% 30.08 in 10.0 mi ESE 8.1 mph - N/A   Clear
12:53 PM 75.9 °F 48.9 °F 38% 30.08 in 10.0 mi ESE 8.1 mph - N/A   Clear
1:53 PM 75.9 °F 48.9 °F 38% 30.08 in 10.0 mi ESE 8.1 mph - N/A   Clear
2:53 PM 75.9 °F 48.0 °F 37% 30.07 in 10.0 mi Variable 3.5 mph - N/A   Partly Cloudy
3:53 PM 75.9 °F 48.9 °F 38% 30.06 in 10.0 mi Variable 5.8 mph - N/A   Partly Cloudy
4:53 PM 75.0 °F 48.9 °F 40% 30.05 in 10.0 mi SE 4.6 mph - N/A   Scattered Clouds
5:53 PM 73.9 °F 51.1 °F 45% 30.04 in 10.0 mi ENE 8.1 mph - N/A   Clear
6:53 PM 72.0 °F 52.0 °F 49% 30.04 in 10.0 mi East 9.2 mph - N/A   Mostly Cloudy
7:53 PM 71.1 °F 53.1 °F 53% 30.05 in 10.0 mi ENE 5.8 mph - N/A   Scattered Clouds
8:53 PM 66.0 °F 55.0 °F 68% 30.08 in 10.0 mi Calm Calm - N/A   Clear
9:53 PM 69.1 °F 54.0 °F 58% 30.09 in 10.0 mi ENE 5.8 mph - N/A   Clear
10:53 PM 68.0 °F 54.0 °F 61% 30.10 in 10.0 mi ENE 5.8 mph - N/A   Partly Cloudy
11:53 PM 68.0 °F 54.0 °F 61% 30.09 in 10.0 mi ENE 4.6 mph - N/A   Clear